| time (UTC) | temp C | wind direction | speed KPH | gust KPH | rain 1hr cm | rain 24hr cm | rain mn cm | humidity % | barometer mb |
| 20260901174522 | 16 | 190 | 0.0 | 0.0 | 0.00 | 0.00 | 0.00 | 90 | 1011.0 |
| 20260901173022 | 17 | 190 | 0.0 | 4.8 | 0.00 | 0.00 | 0.00 | 90 | 1011.0 |
| 20260901171524 | 17 | 192 | 1.6 | 8.0 | 0.00 | 0.00 | 0.00 | 90 | 1011.0 |
| 20260901170021 | 17 | 188 | 1.6 | 6.4 | 0.00 | 0.00 | 0.00 | 90 | 1011.0 |
| 20260901164521 | 17 | 194 | 3.2 | 9.7 | 0.00 | 0.00 | 0.00 | 90 | 1011.1 |
| 20260901163020 | 17 | 208 | 4.8 | 14.5 | 0.00 | 0.00 | 0.00 | 89 | 1011.1 |
| 20260901161542 | 17 | 184 | 1.6 | 11.3 | 0.00 | 0.00 | 0.00 | 89 | 1011.1 |
| 20260901160040 | 17 | 179 | 1.6 | 6.4 | 0.00 | 0.00 | 0.00 | 90 | 1011.0 |
| 20260901154540 | 17 | 217 | 1.6 | 8.0 | 0.00 | 0.00 | 0.00 | 90 | 1011.0 |
| 20260901153040 | 17 | 188 | 1.6 | 8.0 | 0.00 | 0.00 | 0.00 | 90 | 1011.0 |
| 20260901151539 | 17 | 205 | 1.6 | 4.8 | 0.00 | 0.00 | 0.00 | 89 | 1011.1 |
| 20260901150038 | 17 | 234 | 0.0 | 8.0 | 0.00 | 0.00 | 0.00 | 89 | 1011.0 |
| 20260901144538 | 17 | 195 | 1.6 | 4.8 | 0.00 | 0.00 | 0.00 | 88 | 1011.0 |
| 20260901143039 | 17 | 187 | 1.6 | 6.4 | 0.00 | 0.00 | 0.00 | 89 | 1011.0 |
| 20260901141547 | 17 | 174 | 3.2 | 6.4 | 0.00 | 0.00 | 0.00 | 88 | 1011.0 |
| 20260901140039 | 17 | 182 | 3.2 | 6.4 | 0.00 | 0.00 | 0.00 | 89 | 1011.1 |
| 20260901134535 | 17 | 174 | 1.6 | 9.7 | 0.00 | 0.00 | 0.00 | 90 | 1011.1 |
| 20260901133040 | 16 | 275 | 1.6 | 6.4 | 0.00 | 0.00 | 0.00 | 91 | 1011.2 |
| 20260901131534 | 16 | 275 | 3.2 | 9.7 | 0.00 | 0.00 | 0.00 | 91 | 1011.2 |
| 20260901130032 | 16 | 279 | 0.0 | 8.0 | 0.00 | 0.00 | 0.00 | 91 | 1011.1 |
| 20260901124534 | 16 | 263 | 3.2 | 12.9 | 0.00 | 0.00 | 0.00 | 90 | 1011.2 |
| 20260901123032 | 16 | 274 | 3.2 | 12.9 | 0.00 | 0.00 | 0.00 | 90 | 1011.1 |
| 20260901121536 | 17 | 294 | 1.6 | 12.9 | 0.00 | 0.00 | 0.00 | 90 | 1011.1 |
| 20260901120041 | 17 | 257 | 3.2 | 16.1 | 0.00 | 0.00 | 0.00 | 89 | 1011.1 |
| 20260901114531 | 17 | 263 | 4.8 | 16.1 | 0.00 | 0.00 | 0.00 | 88 | 1011.1 |
| 20260901113031 | 17 | 263 | 3.2 | 12.9 | 0.00 | 0.00 | 0.00 | 89 | 1011.2 |
| 20260901111529 | 18 | 254 | 4.8 | 12.9 | 0.00 | 0.00 | 0.00 | 88 | 1011.1 |
| 20260901110031 | 17 | 229 | 3.2 | 11.3 | 0.00 | 0.00 | 0.00 | 88 | 1010.9 |
| 20260901104530 | 17 | 265 | 3.2 | 12.9 | 0.00 | 0.00 | 0.00 | 88 | 1010.8 |
| 20260901103025 | 17 | 261 | 3.2 | 14.5 | 0.00 | 0.00 | 0.00 | 88 | 1010.5 |
| 20260901101522 | 17 | 227 | 1.6 | 6.4 | 0.00 | 0.00 | 0.00 | 87 | 1010.5 |
| 20260901100020 | 17 | 257 | 1.6 | 4.8 | 0.00 | 0.00 | 0.00 | 87 | 1010.5 |
| 20260901094520 | 17 | 159 | 0.0 | 4.8 | 0.00 | 0.00 | 0.00 | 86 | 1010.4 |
| 20260901093017 | 17 | 196 | 1.6 | 4.8 | 0.00 | 0.00 | 0.00 | 86 | 1010.4 |
| 20260901091516 | 17 | 205 | 1.6 | 9.7 | 0.00 | 0.00 | 0.00 | 86 | 1010.4 |
| 20260901090015 | 17 | 186 | 1.6 | 4.8 | 0.00 | 0.00 | 0.00 | 87 | 1010.3 |
| 20260901084515 | 17 | 184 | 1.6 | 4.8 | 0.00 | 0.00 | 0.00 | 88 | 1010.2 |
| 20260901083022 | 17 | 210 | 0.0 | 4.8 | 0.00 | 0.00 | 0.00 | 90 | 1010.2 |
| 20260901081517 | 17 | 239 | 1.6 | 6.4 | 0.00 | 0.00 | 0.00 | 91 | 1010.1 |
| 20260901080012 | 16 | 267 | 1.6 | 9.7 | 0.00 | 0.00 | 0.00 | 91 | 1009.9 |
| 20260901074511 | 16 | 215 | 0.0 | 4.8 | 0.00 | 0.00 | 0.00 | 92 | 1010.0 |
| 20260901073009 | 16 | 194 | 1.6 | 4.8 | 0.00 | 0.00 | 0.00 | 92 | 1009.9 |
| 20260901071508 | 16 | 194 | 0.0 | 6.4 | 0.00 | 0.00 | 0.00 | 92 | 1009.8 |
| 20260901070016 | 16 | 194 | 1.6 | 4.8 | 0.00 | 0.00 | 0.00 | 92 | 1009.7 |
| 20260901064507 | 16 | 269 | 1.6 | 6.4 | 0.00 | 0.00 | 0.00 | 92 | 1009.7 |
| 20260901063006 | 16 | 203 | 1.6 | 4.8 | 0.00 | 0.00 | 0.00 | 92 | 1009.5 |
| 20260901061508 | 16 | 236 | 1.6 | 4.8 | 0.00 | 0.00 | 0.00 | 92 | 1009.5 |
| 20260901060002 | 16 | 239 | 0.0 | 4.8 | 0.00 | 0.00 | 0.00 | 92 | 1009.3 |
| 20260901054501 | 16 | 296 | 0.0 | 6.4 | 0.00 | 0.00 | 0.00 | 92 | 1009.4 |
| 20260901053059 | 16 | 275 | 0.0 | 6.4 | 0.00 | 0.00 | 0.00 | 92 | 1009.4 |
| 20260901051603 | 16 | 267 | 0.0 | 3.2 | 0.00 | 0.00 | 0.00 | 92 | 1009.4 |
| 20260901050055 | 16 | 223 | 0.0 | 6.4 | 0.00 | 0.00 | 0.00 | 92 | 1009.4 |
| 20260901044555 | 16 | 124 | 0.0 | 0.0 | 0.00 | 0.00 | 0.00 | 92 | 1009.4 |
| 20260901043054 | 15 | 124 | 0.0 | 3.2 | 0.00 | 0.00 | 0.00 | 92 | 1009.4 |
| 20260901041614 | 15 | 183 | 0.0 | 1.6 | 0.00 | 0.00 | 0.00 | 92 | 1009.5 |
| 20260901040104 | 16 | 183 | 0.0 | 3.2 | 0.00 | 0.00 | 0.00 | 91 | 1009.4 |
| 20260901034551 | 16 | 183 | 0.0 | 4.8 | 0.00 | 0.00 | 0.00 | 91 | 1009.4 |
| 20260901033050 | 16 | 190 | 1.6 | 9.7 | 0.00 | 0.00 | 0.00 | 91 | 1009.6 |
| 20260901031552 | 15 | 169 | 3.2 | 8.0 | 0.00 | 0.00 | 0.00 | 91 | 1009.6 |
| 20260901030048 | 15 | 159 | 1.6 | 6.4 | 0.00 | 0.00 | 0.00 | 91 | 1009.5 |
| 20260901024551 | 15 | 186 | 0.0 | 4.8 | 0.00 | 0.00 | 0.00 | 91 | 1009.7 |
| 20260901023047 | 15 | 153 | 0.0 | 4.8 | 0.00 | 0.00 | 0.00 | 91 | 1009.6 |
| 20260901021552 | 15 | 150 | 0.0 | 3.2 | 0.00 | 0.00 | 0.00 | 90 | 1009.6 |
| 20260901020050 | 15 | 150 | 0.0 | 4.8 | 0.00 | 0.00 | 0.00 | 90 | 1009.6 |
| 20260901014544 | 15 | 140 | 0.0 | 4.8 | 0.00 | 0.00 | 0.00 | 90 | 1009.8 |
| 20260901013045 | 15 | 153 | 1.6 | 4.8 | 0.00 | 0.00 | 0.00 | 90 | 1009.7 |
| 20260901011544 | 15 | 158 | 0.0 | 4.8 | 0.00 | 0.00 | 0.00 | 90 | 1009.8 |
| 20260901003033 | 15 | 159 | 0.0 | 0.0 | 0.00 | 0.00 | 0.00 | 89 | 1009.9 |
| 20260831234530 | 16 | 160 | 0.0 | 3.2 | 0.00 | 0.00 | 0.00 | 89 | 1010.2 |
| 20260831233025 | 16 | 161 | 0.0 | 3.2 | 0.00 | 0.00 | 0.00 | 89 | 1010.3 |
| 20260831231530 | 16 | 160 | 0.0 | 3.2 | 0.00 | 0.00 | 0.00 | 89 | 1010.2 |
| 20260831230029 | 16 | 173 | 1.6 | 4.8 | 0.00 | 0.00 | 0.00 | 89 | 1010.5 |
| 20260831224522 | 16 | 190 | 1.6 | 8.0 | 0.00 | 0.00 | 0.00 | 89 | 1010.6 |
| 20260831223020 | 16 | 186 | 3.2 | 9.7 | 0.00 | 0.00 | 0.00 | 89 | 1010.7 |
| 20260831221519 | 16 | 185 | 3.2 | 8.0 | 0.00 | 0.00 | 0.00 | 89 | 1010.7 |
| 20260831220017 | 16 | 182 | 3.2 | 8.0 | 0.00 | 0.00 | 0.00 | 89 | 1010.7 |
| 20260831214517 | 16 | 188 | 3.2 | 9.7 | 0.00 | 0.00 | 0.00 | 89 | 1010.7 |
| 20260831213016 | 16 | 195 | 1.6 | 9.7 | 0.00 | 0.00 | 0.00 | 89 | 1010.8 |
| 20260831211527 | 16 | 188 | 3.2 | 11.3 | 0.00 | 0.00 | 0.00 | 88 | 1010.8 |
| 20260831210015 | 16 | 176 | 3.2 | 9.7 | 0.00 | 0.00 | 0.00 | 88 | 1010.7 |
| 20260831204514 | 16 | 174 | 1.6 | 8.0 | 0.00 | 0.00 | 0.00 | 88 | 1010.6 |
| 20260831203019 | 16 | 187 | 3.2 | 9.7 | 0.00 | 0.00 | 0.00 | 87 | 1010.8 |
| 20260831201514 | 16 | 170 | 4.8 | 11.3 | 0.00 | 0.00 | 0.00 | 88 | 1010.8 |
| 20260831200012 | 16 | 196 | 4.8 | 12.9 | 0.00 | 0.00 | 0.00 | 88 | 1010.8 |
| 20260831194512 | 16 | 171 | 3.2 | 12.9 | 0.00 | 0.00 | 0.00 | 88 | 1010.9 |
| 20260831193014 | 16 | 175 | 4.8 | 11.3 | 0.00 | 0.00 | 0.00 | 88 | 1010.9 |
| 20260831191510 | 16 | 175 | 3.2 | 12.9 | 0.00 | 0.00 | 0.00 | 89 | 1010.9 |
| 20260831190112 | 16 | 171 | 4.8 | 11.3 | 0.00 | 0.00 | 0.00 | 89 | 1010.7 |
| 20260831184510 | 16 | 175 | 3.2 | 12.9 | 0.00 | 0.00 | 0.00 | 90 | 1010.6 |
| 20260831183008 | 16 | 164 | 3.2 | 11.3 | 0.00 | 0.00 | 0.00 | 91 | 1010.7 |
| 20260831181508 | 16 | 177 | 4.8 | 12.9 | 0.00 | 0.00 | 0.00 | 92 | 1010.7 |
| 20260831180011 | 17 | 189 | 4.8 | 14.5 | 0.00 | 0.08 | 0.00 | 92 | 1010.7 |